Location: The Saddle
(36.8333°N, 80.3417°W)
Time: 18:11:55
(UTC-04:00)

BlueWalker 3 - Visible Passes

Search period start: 04 October 2023 00:00
Search period end: 14 October 2023 00:00
Orbit: 490 x 508 km, 53.2° (Epoch: 04 October)

Date Brightness Start Highest point End Pass type
(mag) Time Alt. Az. Time Alt. Az. Time Alt. Az.
04 Oct 5.0 04:32:26 14° ENE 04:32:26 14° ENE 04:33:22 10° E visible
04 Oct 2.0 06:07:06 25° WNW 06:09:03 54° SW 06:12:48 10° SSE visible
05 Oct 2.0 05:47:21 53° SW 05:47:23 53° SW 05:51:09 10° SSE visible
06 Oct 3.6 05:27:44 24° SSE 05:27:44 24° SSE 05:29:27 10° SSE visible
06 Oct 3.8 20:43:48 10° SSW 20:45:10 20° SSW 20:45:10 20° SSW visible
07 Oct 2.4 20:22:05 10° SSW 20:25:21 40° SE 20:25:21 40° SE visible
08 Oct 2.3 20:00:22 10° SSW 20:03:56 42° SE 20:05:22 28° E visible
08 Oct 5.0 21:39:20 10° W 21:40:01 14° W 21:40:01 14° W visible
09 Oct 2.3 19:38:37 10° SSW 19:42:12 42° SE 19:45:11 14° ENE visible
09 Oct 4.3 21:17:37 10° W 21:19:49 22° NW 21:19:49 22° NW visible
10 Oct 2.4 19:16:51 10° SSW 19:20:27 42° SE 19:24:02 10° ENE visible
10 Oct 3.9 20:55:52 10° W 20:58:58 24° NNW 20:59:26 23° NNW visible
11 Oct 4.0 20:34:06 10° W 20:37:12 24° NNW 20:38:54 18° N visible
12 Oct 4.0 20:12:18 10° W 20:15:25 24° NNW 20:18:13 12° NNE visible
13 Oct 3.9 19:50:30 10° W 19:53:37 24° NNW 19:56:44 10° NNE visible
